Location: ??????????
(48.5701°N, 37.7703°E)
Time: 20:07:13
(UTC+00:00)

Meteor 1-11 Rocket - Pass Details

Date: 14 July 2020
Orbit: 832 x 915 km, 81.2° (Epoch: 11 August)

Event Time Altitude Azimuth Distance (km) Brightness Sun altitude
Exits shadow 00:21:46 13° 210° (SSW) 2,213 5.2 -10.5°
Maximum altitude 00:26:33 55° 286° (WNW) 996 4.0 -10.0°
Drops below altitude 10° 00:32:00 10° 4° (N) 2,456 7.0 -9.4°
Sets 00:34:29 0° 9° (N) 3,399 7.9 -9.2°
